FW2876 Weather Reports


time (UTC)temp
F
wind
direction
speed
knots
gust
knots
rain 1hr
in
rain 24hr
in
rain mn
in
humidity
%
barometer
mb
20260507114520 47 360 1.7 3.5 0.00 0.00 0.00 63 1021.1
20260507113026 47 360 1.7 3.5 0.00 0.00 0.00 63 1021.2
20260507111518 47 360 0.9 3.5 0.00 0.00 0.00 63 1021.1
20260507110015 47 360 1.7 3.5 0.00 0.00 0.00 63 1021.3
20260507104512 48 360 0.9 3.5 0.00 0.00 0.00 63 1021.2
20260507103009 49 360 2.6 5.2 0.00 0.00 0.00 63 1021.3
20260507101514 49 360 3.5 7.8 0.00 0.00 0.00 63 1021.1
20260507100005 50 360 4.3 7.8 0.00 0.00 0.00 63 1020.7
20260507094503 50 360 5.2 9.6 0.00 0.00 0.00 63 1020.6
20260507093102 50 360 6.1 9.6 0.00 0.00 0.00 64 1020.5
20260507091558 50 360 4.3 7.8 0.00 0.00 0.00 64 1020.4
20260507090106 51 360 4.3 9.6 0.00 0.00 0.00 63 1020.1
20260507084552 51 360 4.3 7.8 0.00 0.00 0.00 64 1020.0
20260507083050 51 360 4.3 9.6 0.00 0.00 0.00 63 1019.8
20260507081547 51 360 6.1 9.6 0.00 0.00 0.00 64 1019.5
20260507080046 51 360 4.3 7.8 0.00 0.00 0.00 63 1019.7
20260507074547 51 360 3.5 7.0 0.00 0.00 0.00 63 1019.8
20260507073041 52 360 3.5 9.6 0.00 0.00 0.00 62 1019.5
20260507071538 52 360 3.5 7.8 0.00 0.00 0.00 62 1019.5
20260507070036 52 360 3.5 7.0 0.00 0.00 0.00 61 1019.3
20260507064533 53 360 4.3 7.8 0.00 0.00 0.00 60 1019.2
20260507063031 53 360 4.3 7.8 0.00 0.00 0.00 60 1019.1
20260507061527 53 360 3.5 7.8 0.00 0.00 0.00 59 1018.7
20260507060024 54 360 2.6 7.0 0.00 0.00 0.00 58 1018.5
20260507054521 54 360 3.5 7.0 0.00 0.00 0.00 58 1018.2
20260507053018 55 360 3.5 7.8 0.00 0.00 0.00 56 1018.0
20260507051517 56 360 3.5 7.8 0.00 0.00 0.00 55 1017.9
20260507050012 56 360 4.3 9.6 0.00 0.00 0.00 54 1017.6
20260507044511 56 360 4.3 7.8 0.00 0.00 0.00 54 1017.3
20260507043010 57 360 7.0 12.2 0.00 0.00 0.00 53 1017.0
20260507041523 57 360 7.8 13.9 0.00 0.00 0.00 52 1017.0
20260507040008 58 360 6.1 9.6 0.00 0.00 0.00 51 1017.1
20260507034511 58 360 7.0 11.3 0.00 0.00 0.00 50 1016.8
20260507033009 59 360 7.8 13.0 0.00 0.00 0.00 50 1016.6
20260507031503 59 360 7.0 11.3 0.00 0.00 0.00 49 1016.5
20260507030004 60 104 5.2 10.4 0.00 0.00 0.00 47 1016.4
20260507024504 61 360 7.0 11.3 0.00 0.00 0.00 46 1016.1
20260507023113 61 360 7.8 11.3 0.00 0.00 0.00 45 1015.9
20260507021558 62 360 7.0 12.2 0.00 0.00 0.00 43 1015.3
20260507020058 62 360 7.0 12.2 0.00 0.00 0.00 42 1015.2
20260507014607 63 360 5.2 11.3 0.00 0.00 0.00 41 1015.2
20260507013113 64 360 7.8 13.0 0.00 0.00 0.00 40 1014.8
20260507011556 65 360 6.1 13.9 0.00 0.00 0.00 38 1014.7
20260507010056 66 360 7.8 12.2 0.00 0.00 0.00 37 1014.4
20260507004554 67 360 9.6 12.2 0.00 0.00 0.00 36 1014.2
20260507003053 68 360 8.7 14.8 0.00 0.00 0.00 35 1014.1
20260507001609 67 360 8.7 12.2 0.00 0.00 0.00 35 1014.1
20260507000053 67 360 7.0 13.0 0.00 0.00 0.00 35 1014.0
20260506234553 68 360 6.1 12.2 0.00 0.00 0.00 34 1013.9
20260506233051 69 360 7.8 12.2 0.00 0.00 0.00 33 1013.9
20260506231551 69 360 6.1 12.2 0.00 0.00 0.00 34 1014.0
20260506230050 68 360 5.2 11.3 0.00 0.00 0.00 34 1013.9
20260506224549 69 360 7.0 12.2 0.00 0.00 0.00 33 1013.7
20260506223103 69 360 6.1 10.4 0.00 0.00 0.00 33 1013.7
20260506221547 68 360 3.5 14.8 0.00 0.00 0.00 34 1013.6
20260506220045 68 360 3.5 8.7 0.00 0.00 0.00 35 1013.5
20260506214544 67 360 5.2 12.2 0.00 0.00 0.00 35 1013.6
20260506213042 67 360 7.0 10.4 0.00 0.00 0.00 37 1013.5
20260506211543 66 360 4.3 7.8 0.00 0.00 0.00 38 1013.7
20260506210040 65 360 1.7 8.7 0.00 0.00 0.00 39 1013.9
20260506204536 64 360 4.3 7.8 0.00 0.00 0.00 40 1014.0
20260506203041 62 360 2.6 8.7 0.00 0.00 0.00 43 1014.1
20260506201531 62 360 4.3 8.7 0.00 0.00 0.00 43 1014.2
20260506200029 61 360 2.6 8.7 0.00 0.00 0.00 43 1014.3
20260506194528 61 360 2.6 9.6 0.00 0.00 0.00 43 1014.3
20260506193026 61 360 5.2 11.3 0.00 0.00 0.00 44 1014.5
20260506191526 60 360 7.8 11.3 0.00 0.00 0.00 44 1014.7
20260506190025 60 360 5.2 11.3 0.00 0.00 0.00 44 1014.6
20260506184525 60 360 5.2 9.6 0.00 0.00 0.00 45 1014.9
20260506183025 60 360 5.2 12.2 0.00 0.00 0.00 45 1014.8
20260506181529 61 360 4.3 11.3 0.00 0.00 0.00 45 1014.9
20260506180031 59 360 3.5 10.4 0.00 0.00 0.00 48 1014.8
20260506174516 58 360 6.1 10.4 0.00 0.00 0.00 49 1015.1
20260506173016 57 360 7.8 11.3 0.00 0.00 0.00 51 1015.2
20260506171524 56 360 4.3 11.3 0.00 0.00 0.00 53 1015.2
20260506170013 55 360 4.3 13.0 0.00 0.00 0.00 54 1014.9
20260506164612 54 360 6.1 14.8 0.00 0.00 0.00 55 1015.0
20260506163019 54 360 7.0 12.2 0.00 0.00 0.00 56 1015.1
20260506161519 53 360 7.8 12.2 0.00 0.00 0.00 57 1015.0
20260506160013 52 360 5.2 13.9 0.00 0.00 0.00 60 1014.7
20260506154508 51 360 6.1 14.8 0.00 0.00 0.00 61 1014.5
20260506153010 51 360 9.6 13.9 0.00 0.00 0.00 62 1014.6
20260506151506 50 360 7.8 13.9 0.00 0.00 0.00 62 1014.7
20260506150007 50 360 8.7 13.9 0.00 0.00 0.00 62 1014.7
20260506144505 50 360 7.8 12.2 0.00 0.00 0.00 63 1014.7
20260506143008 50 360 8.7 14.8 0.00 0.00 0.00 63 1014.7
20260506141503 50 360 7.8 14.8 0.00 0.00 0.00 64 1014.6
20260506140001 50 360 7.0 13.9 0.00 0.00 0.00 64 1014.6
20260506134620 50 360 6.1 13.0 0.00 0.00 0.00 64 1014.2
20260506133059 50 360 10.4 15.6 0.00 0.00 0.00 63 1013.7
20260506131611 50 360 7.8 12.2 0.00 0.00 0.00 63 1013.8
20260506130058 50 360 7.0 11.3 0.00 0.00 0.00 63 1014.0
20260506124555 50 360 7.8 13.0 0.00 0.00 0.00 63 1013.4
20260506123053 50 360 8.7 14.8 0.00 0.00 0.00 64 1012.6
20260506121549 50 360 11.3 18.2 0.00 0.00 0.00 64 1011.8
20260506120047 50 360 10.4 20.0 0.00 0.00 0.00 63 1011.4